Satellite-Ground Cal/Val Site Overpasses Predictions

Prediction of Satellite NPP Overpassing Cal/Val Site: Antarctic Dome C

Ground Cal/Val Site Location: Latitude: -75.10, Longitude: 123.35; Satellite-Ground Site NADIR distance within 100 km.

Table of predicted overpasses for the next 14.0 days since TLE Epoch: 4/13/2016
Interval Starting Time Ending Time Minimum Distance Time Minimum Distance (km)
1 04/13/2016 07:32:24 04/13/2016 07:32:53 04/13/2016 07:32:39 2.21
2 04/16/2016 14:55:53 04/16/2016 14:56:21 04/16/2016 14:56:07 18.73
3 04/17/2016 14:37:11 04/17/2016 14:37:24 04/17/2016 14:37:18 88.12
4 04/18/2016 07:38:43 04/18/2016 07:39:11 04/18/2016 07:38:57 35.99
5 04/19/2016 07:19:57 04/19/2016 07:20:17 04/19/2016 07:20:07 74.03
6 04/21/2016 15:02:12 04/21/2016 15:02:36 04/21/2016 15:02:24 56.14
7 04/22/2016 14:43:23 04/22/2016 14:43:48 04/22/2016 14:43:36 52.99
8 04/23/2016 07:45:04 04/23/2016 07:45:24 04/23/2016 07:45:14 71.54
9 04/24/2016 07:26:12 04/24/2016 07:26:39 04/24/2016 07:26:25 36.36


NCC Satellite Cal/Val Overpasses Prediction Service
